Location: Essen
(51.4609°N, 7.0127°E)
Time: 18:56:13
(UTC+01:00)

ISS - Pass Details

Date: 16 November 2017
Orbit: 402 x 407 km, 51.6° (Epoch: 19 November)

Event Time Altitude Azimuth Distance (km) Brightness Sun altitude
Exits shadow 05:38:16 20° 180° (S) 986 -1.9 -20.5°
Drops below altitude 10° 05:39:52 10° 156° (SSE) 1,450 -0.7 -20.3°
Sets 05:42:09 0° 142° (SE) 2,306 0.7 -19.9°
